Spokane Felts, WA
on Saturday, January 19, 2013

Saturday
Previous Day Next Day
Daily Summary
 ActualAverageRecord
Temperature
Mean Temperature °F 32°F  
Max Temperature 33°F 37°F 54°F (2005)
Min Temperature 15°F 27°F 15°F (2013)
Degree Days
Heating Degree Days 41 33  
Month to date heating degree days 726 652  
Since 1 July heating degree days 2894 3321  
Cooling Degree Days 0 0  
Month to date cooling degree days 0 0  
Year to date cooling degree days 0 0  
Moisture
Dew Point 16°F   
Average Humidity 76    
Maximum Humidity 88    
Minimum Humidity 63    
Precipitation
Precipitation 0.00 in 0.06 in 0.60 in (2012)
Month to date precipitation 0.92 1.26  
Year to date precipitation 0.92 1.26  
Wind
Wind Speed 1 mph   
Max Wind Speed 8 mph   
Max Gust Speed 8 mph   
Visibility 6 miles   
Events Fog   

Key: T is trace of precipitation, MM is missing value
Source: NWS Daily Summary
Time(PST)TemperatureDew PointHumidity Pressure Visibility Wind DirectionWind SpeedGust SpeedPrecipitationEvents Conditions
12:00 AM 19.4°F 15.8°F 86% 30.34 in 4.0 miles ENE 3.5 mph - N/A   Scattered Clouds
12:53 AM 17.1°F 12.9°F 84% 30.43 in 4.0 miles ENE 6.9 mph - N/A   Scattered Clouds
1:05 AM 17.6°F 12.2°F 79% 30.34 in 4.0 miles East 4.6 mph - N/A   Mostly Cloudy
1:44 AM 15.8°F 10.4°F 79% 30.35 in 4.0 miles East 3.5 mph - N/A   Haze
1:53 AM 16.0°F 10.9°F 81% 30.44 in 5.0 miles East 3.5 mph - N/A   Haze
2:16 AM 17.6°F 12.2°F 79% 30.35 in 5.0 miles Calm Calm - N/A   Haze
2:53 AM 16.0°F 10.9°F 81% 30.44 in 5.0 miles NE 3.5 mph - N/A   Haze
3:50 AM 15.8°F 10.4°F 79% 30.36 in 5.0 miles Calm Calm - N/A   Haze
3:53 AM 16.0°F 10.9°F 81% 30.45 in 5.0 miles Calm Calm - N/A   Haze
4:41 AM 15.8°F 10.4°F 79% 30.36 in 1.8 miles East 4.6 mph - N/A   Haze
4:51 AM 15.8°F 12.2°F 86% 30.37 in 3.0 miles East 3.5 mph - N/A   Mostly Cloudy
4:53 AM 16.0°F 12.0°F 84% 30.46 in 4.0 miles Calm Calm - N/A   Overcast
5:23 AM 15.8°F 12.2°F 86% 30.38 in 5.0 miles Calm Calm - N/A   Scattered Clouds
5:53 AM 16.0°F 12.0°F 84% 30.47 in 5.0 miles ENE 3.5 mph - N/A   Scattered Clouds
6:53 AM 17.1°F 12.0°F 81% 30.48 in 5.0 miles East 3.5 mph - N/A   Haze
7:53 AM 18.0°F 12.9°F 81% 30.48 in 4.0 miles NE 3.5 mph - N/A   Haze
8:53 AM 19.0°F 14.0°F 81% 30.50 in 3.0 miles ENE 3.5 mph - N/A   Haze
9:53 AM 21.0°F 18.0°F 88% 30.51 in 5.0 miles Calm Calm - N/A   Partly Cloudy
10:53 AM 23.0°F 19.9°F 88% 30.49 in 6.0 miles Calm Calm - N/A Fog Patches of Fog
11:53 AM 24.1°F 19.0°F 81% 30.49 in 7.0 miles Calm Calm - N/A Fog Patches of Fog
12:53 PM 27.0°F 19.0°F 72% 30.46 in 10.0 miles Calm Calm - N/A   Clear
1:53 PM 28.9°F 21.0°F 72% 30.44 in 10.0 miles SSW 4.6 mph - N/A   Clear
2:53 PM 32.0°F 21.0°F 64% 30.45 in 10.0 miles Calm Calm - N/A   Clear
3:53 PM 32.0°F 21.0°F 64% 30.44 in 10.0 miles Calm Calm - N/A   Clear
4:53 PM 28.9°F 23.0°F 78% 30.45 in 9.0 miles Calm Calm - N/A   Clear
5:53 PM 26.1°F 21.9°F 84% 30.46 in 10.0 miles Calm Calm - N/A   Clear
6:53 PM 26.1°F 21.0°F 81% 30.46 in 8.0 miles Calm Calm - N/A   Clear
7:53 PM 27.0°F 21.9°F 81% 30.48 in 8.0 miles Calm Calm - N/A   Clear
8:53 PM 26.6°F 23.0°F 86% 30.41 in 8.0 miles Calm Calm - N/A   Clear
9:53 PM 26.1°F 21.9°F 84% 30.50 in 5.0 miles Calm Calm - N/A   Clear
10:53 PM 26.1°F 23.0°F 88% 30.50 in 5.0 miles Calm Calm - N/A   Clear
11:53 PM 26.1°F 21.9°F 84% 30.50 in 5.0 miles Calm Calm - N/A   Clear
Moon Phase
Jan. 19 Jan. 26 Feb. 03 Feb. 10 Feb. 17
Sunrise:07:29 AM (PST) Moon Rise:11:04 AM (PST)1/19
Sunset:04:31 PM (PST) Moon Set:01:02 AM (PST)1/19

Copyright © 2014 The Weather Underground, Inc.